Weather History for KFKN - November, 2013

Change the Weather History Date:

Sunday, November 10, 2013

  Actual Average (KORF) Record (KORF)
Temperature  
Mean Temperature 56 °F 54 °F  
Max Temperature 71 °F 63 °F 83 °F (1979)
Min Temperature 42 °F 46 °F 30 °F (1995)
Degree Days  
Heating Degree Days 8 11  
Month to date heating degree days 96  
Since 1 July heating degree days 253  
Cooling Degree Days 0 0  
Month to date cooling degree days 1  
Year to date cooling degree days 1621  
Growing Degree Days 6 (Base 50)    
Moisture  
Dew Point 35 °F    
Average Humidity 51    
Maximum Humidity 76    
Minimum Humidity 25    
Precipitation  
Precipitation 0.00 in 0.10 in 3.00 in (1919)
Month to date precipitation 1.11  
Year to date precipitation 41.23  
Snow  
Snow 0.00 in 0.00 in 0.00 in (2002)
Month to date snowfall 0.0  
Since 1 July snowfall 0.0  
Snow Depth -    
Sea Level Pressure  
Sea Level Pressure 30.11 in    
Wind  
Wind Speed 6 mph (West)    
Max Wind Speed 17 mph    
Max Gust Speed 25 mph    
Visibility 10 miles    
Events      
T = Trace of Precipitation, MM = Missing Value Source: NWS Daily Summary

Daily Weather History Graph

Daily Weather History Graph

Search for Another Location

Airport or City:

Trip Planner

Search our weather history database for the weather conditions in past years. The results will help you decide how hot, cold, wet, or windy it might be!

Date:

Astronomy

Nov. 10, 2013 Rise Set
Actual Time 6:40 AM EST 5:02 PM EST
Civil Twilight 6:13 AM EST 5:29 PM EST
Nautical Twilight 5:42 AM EST 6:00 PM EST
Astronomical Twilight 5:11 AM EST 6:30 PM EST
Moon 12:56 PM EST (11/10) No Moon Set
Length of Visible Light 11h 16m
Length of Day
10h 21m
First Quarter, 55% of the Moon is Illuminated
Nov 10
First Quarter
Nov 17
Full
Nov 25
Last Quarter
Dec 2
New
Dec 9
First Quarter

Hourly Weather History & Observations

Time (EST) Temp. Windchill Dew Point Humidity Pressure Visibility Wind Dir Wind Speed Gust Speed Precip Events Conditions
12:15 AM 44.6 °F 40.7 °F 35.6 °F 71% 30.15 in 10.0 mi SSW 6.9 mph - N/A   Clear
12:35 AM 46.4 °F 42.9 °F 33.8 °F 62% 30.14 in 10.0 mi SW 6.9 mph - N/A   Clear
12:55 AM 46.4 °F 43.5 °F 33.8 °F 62% 30.14 in 10.0 mi SW 5.8 mph - N/A   Clear
1:15 AM 46.4 °F 44.3 °F 33.8 °F 62% 30.14 in 10.0 mi SW 4.6 mph - N/A   Clear
1:35 AM 46.4 °F 43.5 °F 33.8 °F 62% 30.13 in 10.0 mi SW 5.8 mph - N/A   Clear
1:55 AM 46.4 °F 42.9 °F 33.8 °F 62% 30.13 in 10.0 mi SW 6.9 mph - N/A   Clear
2:15 AM 46.4 °F 44.3 °F 33.8 °F 62% 30.13 in 10.0 mi SW 4.6 mph - N/A   Clear
2:35 AM 46.4 °F 44.3 °F 33.8 °F 62% 30.13 in 10.0 mi WSW 4.6 mph - N/A   Clear
2:55 AM 44.6 °F 41.4 °F 35.6 °F 71% 30.12 in 10.0 mi SW 5.8 mph - N/A   Clear
3:15 AM 46.4 °F 45.2 °F 35.6 °F 66% 30.12 in 10.0 mi SW 3.5 mph - N/A   Clear
3:35 AM 44.6 °F 42.2 °F 35.6 °F 71% 30.11 in 10.0 mi SW 4.6 mph - N/A   Clear
3:55 AM 44.6 °F 42.2 °F 35.6 °F 71% 30.11 in 10.0 mi SW 4.6 mph - N/A   Clear
4:15 AM 44.6 °F 43.1 °F 35.6 °F 71% 30.12 in 10.0 mi WSW 3.5 mph - N/A   Clear
4:35 AM 44.6 °F - 35.6 °F 71% 30.12 in 10.0 mi Calm Calm - N/A   Clear
4:55 AM 44.6 °F 43.1 °F 35.6 °F 71% 30.12 in 10.0 mi SW 3.5 mph - N/A   Clear
5:15 AM 44.6 °F - 35.6 °F 71% 30.12 in 10.0 mi Calm Calm - N/A   Clear
5:35 AM 42.8 °F - 35.6 °F 76% 30.12 in 10.0 mi Calm Calm - N/A   Clear
5:55 AM 44.6 °F - 35.6 °F 71% 30.12 in 10.0 mi Calm Calm - N/A   Clear
6:15 AM 44.6 °F 43.1 °F 35.6 °F 71% 30.13 in 10.0 mi WSW 3.5 mph - N/A   Clear
6:35 AM 44.6 °F 43.1 °F 35.6 °F 71% 30.13 in 10.0 mi West 3.5 mph - N/A   Clear
6:55 AM 44.6 °F - 35.6 °F 71% 30.14 in 10.0 mi Calm Calm - N/A   Clear
7:15 AM 44.6 °F 43.1 °F 35.6 °F 71% 30.14 in 10.0 mi West 3.5 mph - N/A   Clear
7:35 AM 46.4 °F 45.2 °F 35.6 °F 66% 30.14 in 10.0 mi WSW 3.5 mph - N/A   Clear
7:55 AM 48.2 °F - 35.6 °F 62% 30.14 in 10.0 mi West 6.9 mph - N/A   Clear
8:15 AM 50.0 °F - 35.6 °F 58% 30.14 in 10.0 mi West 8.1 mph - N/A   Clear
8:35 AM 53.6 °F - 35.6 °F 51% 30.13 in 7.0 mi West 9.2 mph - N/A   Clear
8:55 AM 55.4 °F - 35.6 °F 47% 30.13 in 7.0 mi West 8.1 mph - N/A   Clear
9:15 AM 57.2 °F - 37.4 °F 48% 30.13 in 10.0 mi West 6.9 mph - N/A   Clear
9:35 AM 59.0 °F - 37.4 °F 45% 30.12 in 10.0 mi West 9.2 mph - N/A   Clear
9:55 AM 60.8 °F - 37.4 °F 42% 30.12 in 10.0 mi West 9.2 mph - N/A   Clear
10:15 AM 62.6 °F - 37.4 °F 39% 30.11 in 10.0 mi WSW 10.4 mph 16.1 mph N/A   Clear
10:35 AM 64.4 °F - 37.4 °F 37% 30.11 in 10.0 mi West 12.7 mph 19.6 mph N/A   Clear
10:55 AM 66.2 °F - 39.2 °F 37% 30.10 in 10.0 mi WSW 11.5 mph 16.1 mph N/A   Clear
11:15 AM 66.2 °F - 37.4 °F 35% 30.08 in 10.0 mi West 11.5 mph 19.6 mph N/A   Clear
11:35 AM 68.0 °F - 37.4 °F 33% 30.07 in 10.0 mi West 13.8 mph 20.7 mph N/A   Clear
11:55 AM 69.8 °F - 37.4 °F 31% 30.05 in 10.0 mi West 12.7 mph 21.9 mph N/A   Clear
12:15 PM 69.8 °F - 37.4 °F 31% 30.04 in 10.0 mi WSW 11.5 mph 16.1 mph N/A   Clear
12:35 PM 69.8 °F - 37.4 °F 31% 30.03 in 10.0 mi WSW 15.0 mph 19.6 mph N/A   Clear
12:55 PM 71.6 °F - 35.6 °F 27% 30.02 in 10.0 mi West 16.1 mph 21.9 mph N/A   Clear
1:15 PM 71.6 °F - 35.6 °F 27% 30.01 in 10.0 mi West 10.4 mph 21.9 mph N/A   Clear
1:35 PM 71.6 °F - 33.8 °F 25% 30.01 in 10.0 mi West 15.0 mph 25.3 mph N/A   Clear
1:55 PM 71.6 °F - 33.8 °F 25% 30.01 in 10.0 mi West 17.3 mph 25.3 mph N/A   Clear
2:15 PM 71.6 °F - 35.6 °F 27% 30.01 in 10.0 mi West 13.8 mph 21.9 mph N/A   Clear
2:35 PM 71.6 °F - 35.6 °F 27% 30.01 in 10.0 mi West 12.7 mph 20.7 mph N/A   Clear
2:55 PM 71.6 °F - 35.6 °F 27% 30.01 in 10.0 mi West 13.8 mph 25.3 mph N/A   Clear
3:15 PM 71.6 °F - 33.8 °F 25% 30.01 in 10.0 mi West 10.4 mph 17.3 mph N/A   Clear
3:35 PM 69.8 °F - 33.8 °F 27% 30.02 in 10.0 mi West 12.7 mph 20.7 mph N/A   Clear
3:55 PM 69.8 °F - 33.8 °F 27% 30.02 in 10.0 mi West 10.4 mph 21.9 mph N/A   Clear
4:15 PM 68.0 °F - 33.8 °F 28% 30.03 in 10.0 mi West 6.9 mph - N/A   Clear
4:35 PM 68.0 °F - 33.8 °F 28% 30.04 in 10.0 mi WSW 5.8 mph - N/A   Clear
4:55 PM 66.2 °F - 33.8 °F 30% 30.04 in 10.0 mi West 4.6 mph - N/A   Clear
5:15 PM 62.6 °F - 35.6 °F 37% 30.05 in 10.0 mi Calm Calm - N/A   Clear
5:35 PM 60.8 °F - 37.4 °F 42% 30.06 in 10.0 mi Calm Calm - N/A   Clear
5:55 PM 53.6 °F - 41.0 °F 62% 30.07 in 10.0 mi Calm Calm - N/A   Clear
6:15 PM 53.6 °F - 39.2 °F 58% 30.08 in 10.0 mi Calm Calm - N/A   Clear
6:35 PM 51.8 °F - 39.2 °F 62% 30.09 in 10.0 mi Calm Calm - N/A   Clear
6:55 PM 50.0 °F - 39.2 °F 66% 30.10 in 10.0 mi Calm Calm - N/A   Clear
7:15 PM 48.2 °F - 39.2 °F 71% 30.10 in 10.0 mi Calm Calm - N/A   Clear
7:35 PM 48.2 °F - 39.2 °F 71% 30.11 in 10.0 mi Calm Calm - N/A   Clear
7:55 PM 48.2 °F - 39.2 °F 71% 30.12 in 10.0 mi Calm Calm - N/A   Clear
8:15 PM 51.8 °F - 35.6 °F 54% 30.16 in 10.0 mi North 8.1 mph 16.1 mph N/A   Clear
8:35 PM 53.6 °F - 35.6 °F 51% 30.17 in 10.0 mi North 5.8 mph - N/A   Clear
8:55 PM 51.8 °F - 35.6 °F 54% 30.18 in 10.0 mi North 5.8 mph - N/A   Clear
9:15 PM 51.8 °F - 33.8 °F 50% 30.19 in 10.0 mi North 9.2 mph - N/A   Clear
9:35 PM 53.6 °F - 30.2 °F 41% 30.20 in 10.0 mi North 11.5 mph - N/A   Clear
9:55 PM 53.6 °F - 28.4 °F 38% 30.21 in 10.0 mi North 11.5 mph 17.3 mph N/A   Clear
10:15 PM 51.8 °F - 28.4 °F 41% 30.22 in 10.0 mi North 12.7 mph 19.6 mph N/A   Clear
10:35 PM 51.8 °F - 28.4 °F 41% 30.23 in 10.0 mi North 8.1 mph 17.3 mph N/A   Clear
10:55 PM 50.0 °F - 28.4 °F 43% 30.23 in 10.0 mi North 6.9 mph - N/A   Clear
11:15 PM 48.2 °F - 28.4 °F 46% 30.24 in 10.0 mi North 4.6 mph - N/A   Clear
11:35 PM 48.2 °F - 28.4 °F 46% 30.25 in 10.0 mi NNE 5.8 mph - N/A   Clear
11:55 PM 46.4 °F 45.2 °F 28.4 °F 50% 30.25 in 10.0 mi NNE 3.5 mph - N/A   Clear